Location: Unspecified
(49.2170°N, 0.0000°E)
Time: 04:05:22
(UTC+00:00)

Courier 1B Rocket - Pass Details

Date: 22 January 2021
Orbit: 920 x 1202 km, 28.3° (Epoch: 05 March)

Event Time Altitude Azimuth Distance (km) Brightness Sun altitude
Rises 09:35:35 0° 233° (SW) 3,887 8.1 13.0°
Reaches altitude 10° 09:39:55 10° 209° (SSW) 2,991 8.0 13.4°
Maximum altitude 09:43:20 14° 181° (S) 2,758 8.4 13.7°
Drops below altitude 10° 09:46:48 10° 153° (SSE) 3,070 10.1 14.1°
Sets 09:51:23 0° 130° (SE) 4,069 9.8 14.5°
